Home > Weather > Portland > Past weeks

Flag for USA Past Weather in Portland, Oregon, USA — Yesterday and Last 2 Weeks

Now
57 °F

Passing clouds.


Feels Like: 57 °F
Forecast: 60 / 82 °F
Wind: 5 mph from Northwest

Location: Portland International Airport

Current Time: Aug 28, 2016 at 7:18:41 AM

Latest Report: Aug 28, 2016 at 6:53 AM


Visibility: 10 mi

Pressure: 30.06 "Hg

Humidity: 87%

Dew Point: 53 °F

Location of PortlandLocation

Past Weather in Portland — Graph

°F

Portland Temperature Yesterday

Maximum temperature yesterday: 83 °F (at 3:53 PM)
Minimum temperature yesterday: 61 °F (at 6:53 AM)
Average temperature yesterday: 70 °F

High & Low Weather Summary for the Past Weeks

 TemperatureHumidityPressure
High99 °F (Aug 19, 2:53 PM)87% (Aug 15, 6:53 AM)30.18 "Hg (Aug 15, 6:53 AM)
Low53 °F (Aug 22, 5:53 AM)11% (Aug 20, 3:53 PM)29.76 "Hg (Aug 20, 6:53 PM)
Average73 °F52%29.98 "Hg
* Reported Aug 13 5:53 AM — Aug 28 5:53 AM, Portland, Weather by CustomWeather, © 2016

Note: Actual official high and low records may vary slightly from our data, if they occured in-between our weather recording intervals... More about our weather records

Advertising

Portland Weather History for the Previous 24 Hours

Scroll right to see more
 ConditionsComfort  
Time TempWeatherWind HumidityBarometerVisibility
5:53 AM
Sun, Aug 28
57 °FPassing clouds.3 mph83%30.05 "Hg10 mi
4:53 AM59 °FClear.7 mph78%30.04 "Hg10 mi
3:53 AM59 °FPassing clouds.6 mph81%30.03 "Hg10 mi
2:53 AM59 °FPassing clouds.5 mph81%30.03 "Hg10 mi
1:53 AM60 °FPassing clouds.7 mph78%30.02 "Hg10 mi
12:53 AM61 °FPassing clouds.7 mph78%30.02 "Hg10 mi
11:53 PM
Sat, Aug 27
62 °FPassing clouds.6 mph73%30.01 "Hg10 mi
10:53 PM63 °FPartly cloudy.7 mph73%30.01 "Hg10 mi
9:53 PM65 °FPassing clouds.7 mph68%29.99 "Hg10 mi
8:53 PM67 °FPassing clouds.7 mph63%29.98 "Hg10 mi
7:53 PM69 °FPassing clouds.7 mph61%29.95 "Hg10 mi
6:53 PM72 °FPassing clouds.14 mph57%29.93 "Hg10 mi
5:53 PM75 °FPassing clouds.12 mph54%29.91 "Hg10 mi
4:53 PM77 °FPartly sunny.14 mph50%29.90 "Hg10 mi
3:53 PM83 °FScattered clouds.9 mph36%29.89 "Hg10 mi
2:53 PM81 °FScattered clouds.5 mph37%29.90 "Hg10 mi
1:53 PM79 °FPassing clouds.7 mph39%29.91 "Hg10 mi
12:53 PM77 °FScattered clouds.7 mph42%29.93 "Hg10 mi
11:53 AM73 °FPassing clouds.No wind48%29.93 "Hg10 mi
10:53 AM71 °FPassing clouds.3 mph53%29.94 "Hg10 mi
9:53 AM68 °FPassing clouds.No wind61%29.94 "Hg10 mi
8:53 AM65 °FPassing clouds.3 mph68%29.93 "Hg10 mi
7:53 AM64 °FPassing clouds.6 mph70%29.93 "Hg10 mi
Weather by CustomWeather, © 2016

See weather overviewHow to use our weather pages